Location: Unspecified
(0.0000°N, 0.0000°E)
Time: 22:30:40
(UTC+00:00)

Explorer 11/Cluster Stage 4 - Visible Passes

Search period start: 12 February 2016 00:00
Search period end: 22 February 2016 00:00
Orbit: 467 x 1267 km, 28.8° (Epoch: 11 February)

Date Brightness Start Highest point End Pass type
(mag) Time Alt. Az. Time Alt. Az. Time Alt. Az.
15 Feb 8.6 20:07:59 10° S 20:08:57 12° S 20:08:57 12° S visible
16 Feb 8.2 19:57:41 10° SSW 20:00:19 17° SSE 20:00:19 17° SSE visible
17 Feb 7.7 19:47:40 10° SSW 19:51:44 23° SSE 19:51:44 23° SSE visible
18 Feb 7.3 19:37:46 10° SW 19:42:38 31° SSE 19:43:11 30° SE visible
19 Feb 7.0 19:27:56 10° SW 19:33:23 40° SSE 19:34:40 34° ESE visible
20 Feb 6.8 19:18:10 10° SW 19:24:06 53° SSE 19:26:12 32° E visible
20 Feb 9.4 21:08:20 10° W 21:08:27 10° W 21:08:27 10° W visible
21 Feb 6.6 19:08:28 10° SW 19:14:47 69° SSE 19:17:46 25° ENE visible
21 Feb 9.2 20:59:14 10° W 21:00:01 13° WNW 21:00:01 13° WNW visible
